* Astronomy

Members Login
Post Info TOPIC: Asteroid 2011 CD66


L

Posts: 131433
Date:
RE: Asteroid 2011 CD66
Permalink  
 


Asteroid 2011 CD66 will make a close approach (0.080 AU) on the 26th January 2018.



__________________


L

Posts: 131433
Date:
Permalink  
 

Orbital elements:
2011 CD66 Earth MOID = 0.0161 AU
Epoch 2011 Feb. 8.0 TT = JDT 2455600.5 MPC
M 167.89272 (2000.0) P Q
n 1.68217975 Peri. 359.13646 +0.82323073 +0.56406904
a 0.7001984 Node 326.26740 -0.52016578 +0.70418051
e 0.4357721 Incl. 6.63526 -0.22741752 +0.43122608
P 0.59 H 27.0 G 0.15 U 8

MPEC 2011 - C92


__________________
Page 1 of 1  sorted by
 
Quick Reply

Please log in to post quick replies.



Create your own FREE Forum
Report Abuse
Powered by ActiveBoard